Location: Maddington
(51.2000°N, 1.9167°W)
Time: 05:29:36
(UTC+00:00)

SL-08 RB Rocket - Pass Details

Date: 18 September 2020
Orbit: 646 x 685 km, 97.8° (Epoch: 20 October)

Event Time Altitude Azimuth Distance (km) Brightness Sun altitude
Exits shadow 19:32:45 - 165° (SSE) 2,922 6.7 -12.9°
Reaches altitude 10° 19:34:45 10° 166° (SSE) 2,102 6.0 -13.2°
Maximum altitude 19:39:22 86° 255° (WSW) 678 3.7 -13.9°
Drops below altitude 10° 19:43:57 10° 345° (NNW) 2,095 6.8 -14.5°
Sets 19:46:11 0° 346° (NNW) 3,006 7.6 -14.9°
